Dewpoint
72 70 71 69 67 65 63 63 64 65 66 66 67 68 66 66 67 69 70 68 68 70 71 71 72 74 68 65 66 66 63 66 69 66 66 68 75 73 72 72 71 73 71
69 69 66 64 61 59 61 62 63 64 63 63 64 66 66 66 68 67 66 65 65 66 67 70 69 70 73 74 70 72 74 74 72 71 70 67 73 77 74 74 73 71 70
66 61 59 59 59 61 62 63 63 63 62 61 63 64 65 66 66 67 67 66 66 66 68 68 68 70 72 71 72 70 69 72 73 72 67 71 68 69 73 74 75 74 71
59 59 61 61 62 62 64 64 63 64 63 63 63 64 65 65 65 65 66 67 66 66 67 68 67 68 70 71 72 72 72 71 73 73 73 73 69 72 74 70 69 70 70
61 61 63 64 66 65 65 65 65 65 63 64 65 65 65 64 61 64 63 64 64 63 65 65 68 68 66 68 71 72 73 73 72 72 71 72 70 70 71 73 70 69 70
63 63 64 65 66 66 66 65 65 65 65 65 65 65 65 63 60 60 62 61 63 64 63 64 65 65 65 65 65 66 70 72 72 72 70 70 71 70 71 71 70 67 65
62 63 64 65 65 66 65 64 64 64 65 65 67 66 65 64 59 58 61 63 64 63 64 66 64 61 64 64 64 64 65 65 66 71 71 70 72 72 73 71 72 74 68
61 61 62 63 64 64 64 64 64 63 64 65 65 65 63 61 58 57 59 64 64 64 64 65 66 66 65 66 68 68 68 70 70 67 70 71 72 75 75 75 74 76 77
57 58 59 60 62 63 63 63 63 63 63 65 64 63 62 62 57 56 60 62 62 62 62 62 61 63 62 60 65 67 68 68 65 62 63 63 64 64 68 74 71 72 73
60 61 62 63 63 62 63 64 63 63 64 62 63 64 60 62 58 56 59 60 59 55 58 59 57 60 58 58 63 65 65 66 67 70 69 67 65 68 63 72 70 72 72
62 62 62 62 63 63 65 63 63 63 63 63 62 64 64 63 64 55 54 59 54 53 56 59 59 57 55 54 54 63 64 66 68 71 72 72 71 71 70 70 71 70 70
61 61 61 61 61 62 64 63 63 63 62 62 63 65 65 67 59 56 53 53 56 56 59 59 60 55 53 52 54 56 54 58 64 68 71 70 68 67 67 69 71 71 70
62 61 61 62 61 62 63 63 62 61 60 58 60 61 62 64 62 55 54 53 52 56 58 56 54 52 51 52 51 52 53 59 63 64 66 66 67 67 69 70 72 73 72
59 61 60 60 59 63 64 64 62 55 55 56 58 60 63 61 58 62 61 59 55 55 56 55 54 53 54 56 56 59 60 61 63 64 65 67 68 69 68 67 69 70 72
56 57 57 57 60 58 59 55 55 58 57 58 60 59 59 57 58 53 52 55 56 53 47 52 61 61 61 62 62 62 64 64 63 63 65 65 66 67 66 67 67 65 68
55 55 56 57 56 55 57 57 54 52 50 48 45 48 56 52 48 46 44 43 42 43 50 58 63 63 61 60 60 61 65 62 62 62 64 66 65 65 65 67 66 70 67
55 56 56 55 61 59 58 60 61 58 51 48 47 45 43 46 45 44 43 41 42 44 53 55 62 63 60 60 60 61 62 64 63 63 63 65 67 69 67 67 66 67 68
55 52 55 59 55 55 56 57 59 59 57 58 54 51 50 46 45 44 41 42 53 48 52 53 58 57 62 61 60 61 60 62 63 64 64 65 66 66 65 65 66 64 64
54 56 55 53 57 55 56 60 57 59 57 57 58 55 53 49 47 43 43 56 54 50 52 52 56 58 59 63 62 61 60 60 61 62 62 63 64 63 64 65 65 57 59
54 54 52 53 53 54 53 54 57 58 55 56 56 53 54 56 59 59 64 62 56 55 54 54 53 56 61 62 63 63 61 60 61 61 60 60 61 61 60 60 60 59 60
52 51 51 50 50 51 51 52 52 54 53 54 54 54 45 56 56 56 60 63 61 59 62 58 58 55 57 59 62 59 57 61 60 60 61 60 60 60 60 59 59 58 57
52 49 49 48 48 50 49 49 47 49 50 50 52 52 45 51 51 51 53 53 56 58 55 55 53 58 58 59 58 61 57 57 55 51 51 52 55 56 58 59 58 58 57
46 47 47 47 47 48 47 47 47 48 49 49 47 48 48 48 48 48 49 51 52 51 51 52 50 49 50 51 51 50 48 49 52 57 52 50 49 49 50 50 50 51 52
37 40 43 46 45 45 46 46 47 45 46 44 43 44 45 45 45 47 47 48 49 49 49 49 48 48 47 47 47 46 45 43 46 52 56 54 50 52 50 49 48 50 49
33 36 36 36 38 40 41 42 42 42 44 43 42 41 41 42 43 43 43 44 46 47 48 47 45 45 45 44 42 39 35 33 41 38 52 55 52 51 48 49 49 51 50
33 35 35 35 36 39 36 39 41 40 40 41 40 39 40 41 40 38 38 39 42 43 43 43 43 44 42 41 39 35 32 32 37 36 46 52 51 52 47 48 49 45 47
Lifted_Index
-7 -6 -5 -4 -2 -0 1 1 1 1 1 1 0 -0 -1 -1 -2 -3 -3 -3 -3 -3 -4 -4 -5 -5 -6 -5 -5 -4 -4 -4 -5 -6 -6 -7 -7 -7 -6 -6 -6 -6 -5
-5 -5 -4 -2 -1 0 1 1 1 1 1 1 1 0 -1 -1 -2 -2 -2 -2 -2 -3 -3 -4 -4 -5 -5 -5 -5 -5 -5 -5 -6 -6 -6 -7 -7 -7 -7 -6 -7 -6 -6
-3 -2 -1 -0 0 1 0 0 0 1 1 1 1 -0 -1 -2 -2 -2 -2 -2 -2 -2 -3 -3 -4 -4 -5 -5 -6 -5 -5 -6 -6 -6 -6 -7 -7 -7 -7 -7 -7 -7 -6
-1 -1 -0 -0 -0 -0 -1 -1 -0 -0 -0 -0 -1 -1 -2 -2 -2 -2 -2 -2 -2 -2 -2 -3 -3 -4 -4 -5 -5 -5 -5 -6 -6 -6 -6 -7 -7 -7 -7 -7 -7 -7 -6
-1 -1 -1 -1 -2 -2 -2 -2 -1 -1 -1 -1 -2 -2 -2 -2 -2 -2 -1 -1 -1 -1 -2 -2 -3 -3 -3 -4 -4 -5 -5 -5 -6 -6 -6 -6 -7 -7 -7 -7 -7 -7 -6
-1 -1 -2 -2 -3 -3 -2 -2 -2 -2 -2 -2 -3 -3 -3 -2 -2 -1 -0 -0 -0 -1 -1 -2 -2 -2 -2 -3 -3 -3 -4 -4 -5 -5 -5 -6 -6 -7 -7 -7 -7 -7 -7
-1 -1 -2 -2 -3 -3 -2 -2 -2 -2 -2 -3 -4 -4 -3 -2 -2 -1 -0 -0 -1 -1 -1 -2 -2 -2 -2 -2 -2 -3 -3 -3 -4 -4 -5 -5 -6 -7 -7 -7 -7 -7 -7
-1 -1 -1 -2 -2 -2 -2 -2 -2 -2 -3 -3 -4 -4 -3 -3 -2 -1 -1 -1 -1 -1 -1 -2 -2 -2 -2 -2 -2 -3 -3 -3 -3 -3 -4 -5 -5 -6 -7 -7 -7 -7 -7
0 -0 -0 -1 -1 -2 -2 -2 -2 -2 -2 -3 -3 -3 -3 -3 -3 -2 -2 -1 -1 -1 -1 -1 -0 -1 -1 -2 -2 -2 -3 -3 -4 -4 -4 -4 -4 -5 -6 -6 -6 -7 -7
-0 -0 -0 -1 -1 -1 -1 -1 -1 -1 -2 -2 -2 -3 -3 -3 -3 -2 -2 -1 -0 0 1 1 1 1 -0 -1 -1 -2 -3 -3 -4 -4 -4 -4 -4 -4 -5 -5 -6 -6 -7
-0 -1 -1 -1 -1 -1 -1 -1 -1 -1 -1 -2 -2 -3 -3 -3 -3 -2 -1 0 1 2 2 2 1 1 1 1 -0 -1 -2 -3 -4 -5 -5 -5 -4 -4 -4 -4 -5 -5 -6
-0 -1 -1 -1 -1 -1 -1 -1 -1 -1 -1 -1 -2 -2 -3 -3 -2 -1 0 1 2 3 3 2 1 2 2 1 0 -1 -2 -3 -4 -4 -5 -5 -4 -4 -4 -4 -4 -5 -5
-0 -1 -1 -1 -1 -1 -1 -1 -0 -0 0 -0 -1 -1 -2 -2 -1 -0 1 1 2 3 2 2 1 2 2 1 0 -0 -1 -2 -3 -4 -4 -4 -4 -4 -4 -4 -4 -4 -4
0 0 -0 -0 -0 -0 -0 0 1 1 2 1 0 -0 -0 -0 0 1 1 1 2 2 2 1 1 1 1 1 -0 -1 -1 -2 -3 -3 -3 -3 -4 -3 -3 -3 -3 -4 -4
2 1 1 1 0 0 1 1 2 2 2 2 1 1 1 1 1 1 1 1 1 1 1 1 1 1 1 1 -0 -1 -2 -2 -3 -3 -3 -3 -3 -3 -3 -3 -3 -3 -3
2 2 1 1 1 1 1 1 1 2 2 2 2 2 2 2 2 2 1 1 1 1 1 0 0 1 1 2 0 -1 -2 -2 -2 -2 -2 -2 -3 -3 -3 -3 -2 -2 -2
3 2 2 1 1 1 1 1 1 1 2 2 2 2 2 2 2 2 1 1 0 0 0 -0 -0 0 1 2 1 0 -1 -1 -2 -2 -2 -2 -3 -3 -3 -2 -2 -2 -2
3 3 2 1 1 2 1 1 1 1 2 2 2 2 2 1 1 1 1 0 0 0 1 0 -0 0 1 2 2 2 1 0 -1 -1 -2 -2 -2 -2 -2 -2 -1 -1 -0
3 3 2 2 2 2 2 1 1 1 2 2 2 2 2 1 1 1 0 0 -0 0 1 1 0 0 0 1 2 3 3 2 1 1 -0 -1 -1 -1 -1 -1 -0 1 1
3 3 3 3 2 3 3 2 2 2 2 3 3 3 2 2 1 1 0 -0 -0 0 0 0 0 0 0 1 2 3 3 3 3 2 2 2 1 0 0 0 1 1 2
3 3 3 3 3 3 3 3 2 2 2 3 3 3 3 3 2 1 1 0 0 1 1 0 0 0 0 0 1 1 2 2 2 3 3 3 3 2 2 2 2 2 2
4 3 3 3 3 3 3 3 2 2 2 3 3 3 3 3 2 2 2 1 1 1 1 1 1 1 1 1 1 1 1 1 1 2 3 3 3 3 3 4 4 4 4
5 4 4 3 3 3 3 3 3 2 2 2 2 2 2 2 2 2 2 2 1 1 1 1 1 1 1 1 2 2 2 2 1 1 2 3 3 3 4 4 4 4 5
8 7 6 5 4 3 3 3 3 3 3 3 2 2 2 2 2 2 2 2 1 1 1 1 2 2 1 2 2 2 2 2 2 2 2 2 3 3 4 4 4 4 4
10 9 8 7 6 5 5 4 4 4 4 4 3 3 3 3 3 3 2 2 2 2 2 2 2 2 2 2 2 2 2 2 2 3 2 2 3 3 4 4 4 4 4
10 10 9 9 8 8 7 6 5 5 4 4 4 4 4 4 3 3 3 3 2 2 2 2 2 2 2 2 2 2 2 2 2 3 3 3 3 3 3 4 4 4 4